FLOCK 1C 5

导读

FLOCK 1C 5是美国发射的一颗小型遥感卫星,于2014年6月19日发射升空,归属FLOCK星座系列。该卫星由行星实验室(Planet Labs)主导运营,主要任务是开展高分辨率对地观测,获取全球各地的遥感影像数据,服务于环境监测、农业评估、城市规划、灾害响应等领域,是商用微纳卫星技术应用于地球观测领域的典型实践,推动了低成本卫星遥感的发展。

基本信息
目录编号:
40038
目录名称:
FLOCK 1C 5
国际标识:
2014-033AE
轨道中心:
EARTH
卫星名称:
FLOCK 1C 5
卫星全名:
--
卫星状态:
已陨落 最后检测时间 2025-03-14
发射日期:
2014-06-19 UTC
国别 :
美国 (US)
星等 :
--
轨道信息
数据来源 国际轨道数据
星历时间: 2025-03-11T20:50:48+0800
轨道信息已过期502天
半长轴: 6570.553km
偏心率: 0.0007724
轨道倾角: 98.041°
近地点辐角 205.589°
升交点赤经 89.273°
平近点角 154.502°
近地点: 187.342km
远地点: 197.494km
周期: 88.341分钟
每日圈数: 16.300464
详细信息
使用方式:
暂无